Weather History for KLUX - October, 2012

Change the Weather History Date:

Monday, October 8, 2012

  Actual Average (KGSP) Record (KGSP)
Temperature  
Mean Temperature 52 °F 64 °F  
Max Temperature 55 °F 75 °F 94 °F (1941)
Min Temperature 48 °F 53 °F 30 °F (1889)
Degree Days  
Heating Degree Days 14 3  
Month to date heating degree days 20  
Since 1 July heating degree days 37  
Cooling Degree Days 0 2  
Month to date cooling degree days 22  
Year to date cooling degree days 1684  
Growing Degree Days 2 (Base 50)    
Moisture  
Dew Point 48 °F    
Average Humidity 87    
Maximum Humidity 100    
Minimum Humidity 76    
Precipitation  
Precipitation 0.00 in 0.12 in 3.41 in (1976)
Month to date precipitation 0.94  
Year to date precipitation 36.88  
Snow  
Snow 0.00 in 0.00 in 0.00 in ()
Month to date snowfall 0.0  
Since 1 July snowfall 0.0  
Since 1 September snowfall 0.0  
Snow Depth -    
Sea Level Pressure  
Sea Level Pressure 30.15 in    
Wind  
Wind Speed 8 mph (NE)    
Max Wind Speed 12 mph    
Max Gust Speed 21 mph    
Visibility 9 miles    
Events      
T = Trace of Precipitation, MM = Missing Value Source: NWS Daily Summary

Daily Weather History Graph

Daily Weather History Graph

Search for Another Location

Airport or City:

Trip Planner

Search our weather history database for the weather conditions in past years. The results will help you decide how hot, cold, wet, or windy it might be!

Date:

Astronomy

Oct. 08, 2012 Rise Set
Actual Time 7:28 AM EDT 7:01 PM EDT
Civil Twilight 7:02 AM EDT 7:26 PM EDT
Nautical Twilight 6:33 AM EDT 7:55 PM EDT
Astronomical Twilight 6:04 AM EDT 8:25 PM EDT
Moon 12:23 AM EDT (10/8) 2:34 PM EDT (10/8)
Length of Visible Light 12h 23m
Length of Day
11h 33m
Waning Gibbous, 46% of the Moon is Illuminated
Oct 8
Waning Gibbous
Oct 15
New
Oct 21
First Quarter
Oct 29
Full
Nov 6
Last Quarter

Hourly Weather History & Observations

Time (EDT) Temp. Dew Point Humidity Pressure Visibility Wind Dir Wind Speed Gust Speed Precip Events Conditions
12:15 AM 55.4 °F 50.0 °F 82% 30.13 in 10.0 mi NE 10.4 mph 16.1 mph N/A   Overcast
12:35 AM 55.4 °F 50.0 °F 82% 30.13 in 10.0 mi NE 6.9 mph 20.7 mph N/A   Overcast
12:55 AM 55.4 °F 50.0 °F 82% 30.13 in 10.0 mi ENE 9.2 mph - N/A   Overcast
1:35 AM 55.4 °F 50.0 °F 82% 30.13 in 10.0 mi ENE 8.1 mph - N/A   Overcast
1:55 AM 55.4 °F 50.0 °F 82% 30.13 in 10.0 mi NE 10.4 mph - N/A   Overcast
2:15 AM 55.4 °F 50.0 °F 82% 30.13 in 10.0 mi NE 8.1 mph - N/A   Overcast
2:35 AM 55.4 °F 50.0 °F 82% 30.14 in 10.0 mi ENE 4.6 mph - N/A   Overcast
2:55 AM 55.4 °F 50.0 °F 82% 30.13 in 10.0 mi NE 6.9 mph - N/A   Overcast
3:15 AM 55.4 °F 50.0 °F 82% 30.13 in 10.0 mi ENE 8.1 mph - N/A   Overcast
3:35 AM 53.6 °F 50.0 °F 88% 30.11 in 10.0 mi NE 4.6 mph - N/A   Overcast
3:55 AM 53.6 °F 50.0 °F 88% 30.12 in 10.0 mi NNE 5.8 mph - N/A   Overcast
4:15 AM 53.6 °F 50.0 °F 88% 30.13 in 10.0 mi NNE 4.6 mph - N/A   Overcast
4:35 AM 53.6 °F 50.0 °F 88% 30.13 in 10.0 mi NNE 5.8 mph - N/A   Overcast
4:55 AM 53.6 °F 50.0 °F 88% 30.13 in 10.0 mi NNE 6.9 mph - N/A   Overcast
5:15 AM 53.6 °F 50.0 °F 88% 30.13 in 10.0 mi North 5.8 mph - N/A   Overcast
5:35 AM 53.6 °F 50.0 °F 88% 30.13 in 10.0 mi NE 6.9 mph - N/A   Overcast
5:55 AM 53.6 °F 50.0 °F 88% 30.14 in 10.0 mi NE 6.9 mph 16.1 mph N/A   Overcast
6:15 AM 53.6 °F 48.2 °F 82% 30.14 in 10.0 mi NNE 6.9 mph - N/A   Overcast
6:35 AM 53.6 °F 50.0 °F 88% 30.15 in 10.0 mi NNE 5.8 mph - N/A   Overcast
6:55 AM 53.6 °F 48.2 °F 82% 30.15 in 10.0 mi NNE 8.1 mph - N/A   Overcast
7:15 AM 53.6 °F 46.4 °F 77% 30.15 in 10.0 mi NE 9.2 mph - N/A   Overcast
7:35 AM 53.6 °F 48.2 °F 82% 30.15 in 10.0 mi NNE 9.2 mph - N/A   Overcast
7:55 AM 51.8 °F 46.4 °F 82% 30.16 in 10.0 mi NNE 8.1 mph - N/A   Overcast
8:15 AM 51.8 °F 46.4 °F 82% 30.16 in 10.0 mi NNE 10.4 mph - N/A   Overcast
8:35 AM 51.8 °F 44.6 °F 76% 30.16 in 10.0 mi NE 11.5 mph - N/A   Overcast
9:15 AM 51.8 °F 44.6 °F 76% 30.16 in 10.0 mi NE 10.4 mph - N/A   Overcast
9:35 AM 51.8 °F 46.4 °F 82% 30.18 in 10.0 mi NNE 8.1 mph - N/A   Overcast
10:15 AM 53.6 °F 46.4 °F 77% 30.18 in 10.0 mi ENE 5.8 mph - N/A   Overcast
10:35 AM 51.8 °F 46.4 °F 82% 30.18 in 10.0 mi NE 5.8 mph - N/A   Overcast
11:15 AM 51.8 °F 46.4 °F 82% 30.19 in 10.0 mi ENE 6.9 mph - N/A   Overcast
11:35 AM 53.6 °F 46.4 °F 77% 30.19 in 10.0 mi NE 4.6 mph - N/A   Overcast
12:15 PM 53.6 °F 46.4 °F 77% 30.18 in 10.0 mi NE 10.4 mph - N/A   Overcast
12:35 PM 53.6 °F 46.4 °F 77% 30.18 in 10.0 mi NE 5.8 mph - N/A   Overcast
1:15 PM 53.6 °F 46.4 °F 77% 30.16 in 10.0 mi ENE 5.8 mph - N/A   Overcast
1:35 PM 53.6 °F 46.4 °F 77% 30.16 in 10.0 mi North 8.1 mph - N/A   Overcast
1:55 PM 53.6 °F 46.4 °F 77% 30.16 in 10.0 mi NE 5.8 mph - N/A   Overcast
2:15 PM 53.6 °F 46.4 °F 77% 30.15 in 10.0 mi NNE 6.9 mph - N/A   Overcast
2:35 PM 53.6 °F 46.4 °F 77% 30.14 in 10.0 mi NNE 8.1 mph - N/A   Overcast
2:55 PM 53.6 °F 48.2 °F 82% 30.14 in 10.0 mi North 8.1 mph - N/A   Overcast
3:15 PM 53.6 °F 48.2 °F 82% 30.13 in 10.0 mi NNE 10.4 mph - N/A   Overcast
3:35 PM 53.6 °F 48.2 °F 82% 30.13 in 10.0 mi NNE 6.9 mph - N/A   Overcast
3:55 PM 53.6 °F 48.2 °F 82% 30.13 in 10.0 mi NNE 6.9 mph - N/A   Overcast
4:15 PM 53.6 °F 48.2 °F 82% 30.13 in 10.0 mi North 6.9 mph - N/A   Overcast
4:35 PM 51.8 °F 48.2 °F 88% 30.13 in 10.0 mi NNE 8.1 mph - N/A   Overcast
4:55 PM 51.8 °F 50.0 °F 94% 30.14 in 10.0 mi North 5.8 mph - N/A   Overcast
5:15 PM 51.8 °F 50.0 °F 94% 30.13 in 10.0 mi North 5.8 mph - N/A   Overcast
5:35 PM 51.8 °F 50.0 °F 94% 30.13 in 10.0 mi NNE 8.1 mph - N/A   Overcast
5:55 PM 51.8 °F 50.0 °F 94% 30.13 in 10.0 mi NNE 10.4 mph - N/A   Overcast
6:15 PM 51.8 °F 50.0 °F 94% 30.13 in 10.0 mi NNE 5.8 mph - N/A   Overcast
6:35 PM 50.0 °F 50.0 °F 100% 30.14 in 10.0 mi NE 6.9 mph - N/A   Overcast
6:55 PM 50.0 °F 50.0 °F 100% 30.15 in 10.0 mi NNE 6.9 mph - N/A   Overcast
7:15 PM 50.0 °F 50.0 °F 100% 30.15 in 7.0 mi NNE 8.1 mph - N/A   Overcast
7:35 PM 50.0 °F 50.0 °F 100% 30.16 in 7.0 mi NNE 5.8 mph - N/A   Overcast
7:55 PM 50.0 °F 50.0 °F 100% 30.16 in 5.0 mi NNE 3.5 mph - N/A   Overcast
8:15 PM 50.0 °F 50.0 °F 100% 30.16 in 7.0 mi NNE 8.1 mph - N/A   Overcast
8:35 PM 48.2 °F 48.2 °F 100% 30.16 in 3.0 mi NNE 6.9 mph - N/A   Overcast
8:55 PM 48.2 °F 48.2 °F 100% 30.16 in 5.0 mi NE 6.9 mph - N/A   Overcast
9:15 PM 48.2 °F 48.2 °F 100% 30.17 in 5.0 mi NE 4.6 mph - N/A   Overcast
9:35 PM 48.2 °F 48.2 °F 100% 30.17 in 4.0 mi NNE 5.8 mph - N/A   Overcast
9:55 PM 48.2 °F 48.2 °F 100% 30.18 in 5.0 mi NNE 6.9 mph - N/A   Overcast
10:15 PM 48.2 °F 48.2 °F 100% 30.18 in 7.0 mi NE 6.9 mph - N/A   Overcast
10:55 PM 48.2 °F 48.2 °F 100% 30.18 in 10.0 mi NNE 4.6 mph - N/A   Overcast
11:15 PM 48.2 °F 48.2 °F 100% 30.18 in 10.0 mi NE 4.6 mph - N/A   Overcast
11:55 PM 48.2 °F 48.2 °F 100% 30.18 in 10.0 mi NNE 6.9 mph - N/A   Overcast